Clarksburg, WV

2:17 PM EST on November 21, 2019 (GMT -0500)
Benedum

Weather History for KCKB - September, 2019

Change the Weather History Date:

Tuesday, September 10, 2019

  Actual Average Record
Temperature  
Mean Temperature 76 °F -  
Max Temperature 93 °F 78 °F 96 °F (1941)
Min Temperature 59 °F 55 °F 39 °F (1949)
Cooling Degree Days 11    
Growing Degree Days 26 (Base 50)    
Moisture  
Dew Point 60 °F    
Average Humidity 68    
Maximum Humidity 90    
Minimum Humidity 29    
Precipitation  
Precipitation 0.00 in - - ()
Sea Level Pressure  
Sea Level Pressure 30.21 in    
Wind  
Wind Speed 1 mph (WSW)    
Max Wind Speed 8 mph    
Max Gust Speed -    
Visibility 9 miles    
Events      
Averages and records for this station are not official NWS values.
T = Trace of Precipitation, MM = Missing Value Source: NWS Daily Summary

Daily Weather History Graph

Daily Weather History Graph

Search for Another Location

Airport or City:

Astronomy

Sep. 10, 2019 Rise Set
Actual Time 6:57 AM EDT 7:37 PM EDT
Civil Twilight 6:30 AM EDT 8:04 PM EDT
Nautical Twilight 5:58 AM EDT 8:36 PM EDT
Astronomical Twilight 5:25 AM EDT 9:09 PM EDT
Moon 6:11 PM EDT (9/10) 3:23 AM EDT (9/10)
Length of Visible Light 13h 34m
Length of Day
12h 40m
Waxing Gibbous, 89% of the Moon is Illuminated
Sep 10
Waxing Gibbous
Sep 14
Full
Sep 21
Last Quarter
Sep 28
New
Oct 5
First Quarter

Hourly Weather History & Observations

Time (EDT) Temp. Heat Index Dew Point Humidity Pressure Visibility Wind Dir Wind Speed Gust Speed Precip Events Conditions
12:53 AM 62.1 °F - 57.9 °F 86% 30.22 in 10.0 mi Calm Calm - N/A   Clear
1:53 AM 62.1 °F - 57.9 °F 86% 30.21 in 10.0 mi Calm Calm - N/A   Clear
2:53 AM 62.1 °F - 57.0 °F 84% 30.21 in 10.0 mi Calm Calm - N/A   Clear
3:53 AM 61.0 °F - 57.0 °F 87% 30.22 in 9.0 mi Calm Calm - N/A   Clear
4:53 AM 60.1 °F - 57.0 °F 90% 30.22 in 8.0 mi Calm Calm - N/A   Clear
5:53 AM 59.0 °F - 55.9 °F 90% 30.23 in 8.0 mi Calm Calm - N/A   Clear
6:53 AM 59.0 °F - 55.9 °F 90% 30.25 in 6.0 mi Calm Calm - N/A   Clear
7:53 AM 62.1 °F - 57.0 °F 84% 30.26 in 6.0 mi NNW 3.5 mph - N/A   Haze
8:53 AM 66.9 °F - 60.1 °F 79% 30.26 in 10.0 mi Calm Calm - N/A   Clear
9:53 AM 73.9 °F - 63.0 °F 68% 30.25 in 10.0 mi Calm Calm - N/A   Clear
10:53 AM 80.1 °F 81.7 °F 64.0 °F 58% 30.25 in 10.0 mi Variable 4.6 mph - N/A   Clear
11:53 AM 84.9 °F 85.9 °F 63.0 °F 48% 30.23 in 10.0 mi SW 5.8 mph - N/A   Clear
12:53 PM 88.0 °F 87.6 °F 60.1 °F 39% 30.22 in 10.0 mi WSW 3.5 mph - N/A   Clear
1:53 PM 90.0 °F 90.0 °F 61.0 °F 38% 30.21 in 10.0 mi South 5.8 mph - N/A   Clear
3:53 PM 93.0 °F 91.4 °F 55.9 °F 29% 30.18 in 10.0 mi West 8.1 mph - N/A   Clear
4:53 PM 93.0 °F 91.4 °F 55.9 °F 29% 30.17 in 10.0 mi West 5.8 mph - N/A   Clear
6:53 PM 87.1 °F 86.7 °F 60.1 °F 40% 30.16 in 10.0 mi SSW 3.5 mph - N/A   Clear
8:53 PM 75.0 °F - 64.9 °F 71% 30.16 in 10.0 mi Calm Calm - N/A   Clear
9:53 PM 73.0 °F - 64.0 °F 73% 30.17 in 10.0 mi Calm Calm - N/A   Clear
10:53 PM 70.0 °F - 64.0 °F 81% 30.18 in 10.0 mi Calm Calm - N/A   Clear